Lid_Strength_Index
-1 -1 -1 -1 -1 -1 -1 -1 -1 -1 -1 -1 -1 -1 -1 -1 -1 2 5 4 3 -0 1 7 7 8 8 9 9 10 13 14 13 13 13 12 11 12 11 11 9 9 8 6 4
-1 -1 -1 -1 -1 -1 -1 -0 -1 -0 -1 -0 -1 -1 -1 -1 2 4 1 -1 -1 -0 6 7 9 8 10 10 10 11 13 13 12 12 12 11 12 11 10 10 10 9 7 4 4
-1 -1 -1 -1 -0 -1 0 -0 -0 -0 -1 -0 -1 -1 -1 0 5 7 -1 -1 -1 1 6 7 8 9 11 11 11 12 13 12 12 12 11 10 12 11 11 11 10 10 8 5 5
-1 -1 -1 -1 -0 -0 0 1 1 1 -1 -0 -1 -1 -0 2 13 5 -0 -0 -0 5 6 8 9 11 11 12 11 12 12 12 10 10 11 11 11 12 11 10 11 10 7 6 5
-1 -1 -1 -1 -1 0 1 -0 1 1 -1 0 -1 -1 3 7 7 4 1 1 5 6 7 9 10 11 12 11 11 13 13 12 11 11 12 11 11 12 12 10 11 10 6 5 5
-1 -1 -1 -1 -1 -0 1 0 2 -0 -0 1 -1 -1 5 11 4 5 5 5 6 7 8 9 9 10 11 12 12 11 12 12 11 12 12 13 13 11 12 12 12 10 8 5 6
-1 -1 -1 -1 -1 -1 1 0 1 -0 0 0 -0 1 7 9 4 5 5 6 6 7 8 8 9 10 10 12 11 12 13 13 13 12 13 12 14 13 12 13 12 11 11 7 5
-1 -1 -1 -1 -1 -1 0 -1 -1 -0 -0 -0 -1 4 10 4 4 5 6 6 6 6 7 7 7 8 10 11 12 14 15 16 15 12 13 14 16 14 13 12 12 13 12 11 9
-1 -0 -0 -1 -1 -1 0 -1 -0 -1 -0 -0 4 8 10 2 6 6 6 6 6 7 7 6 8 10 11 14 15 15 18 17 15 12 13 14 16 14 12 12 12 12 12 12 11
-1 0 -0 -1 -1 -1 -1 -1 -0 1 3 3 6 11 8 8 5 5 6 6 8 7 8 9 11 13 15 15 18 17 17 17 17 15 13 14 14 13 12 12 12 12 12 12 12
-0 0 -0 -1 -1 -1 1 4 8 10 8 10 10 11 8 5 4 6 6 7 8 10 12 12 14 15 14 15 16 16 16 17 16 13 14 15 15 13 12 13 12 12 12 12 12
0 -0 0 -0 -1 -1 1 7 8 8 12 9 10 8 7 6 9 7 6 9 10 13 12 13 15 13 12 14 14 16 16 17 15 13 14 15 14 13 13 12 12 12 12 13 13
2 1 0 -0 -0 1 3 4 2 4 11 9 10 9 8 8 10 8 7 9 12 13 13 14 13 12 13 14 15 16 16 17 17 16 16 17 17 16 14 14 13 13 13 13 13
3 3 2 1 2 3 4 2 1 3 12 11 12 10 7 7 10 7 7 8 12 13 13 14 13 13 14 15 15 17 14 14 15 17 18 17 21 17 15 14 14 14 13 13 12
4 4 3 2 3 4 3 2 2 6 19 10 9 7 9 10 10 10 8 9 12 12 12 14 13 14 14 13 13 15 13 14 16 17 18 19 19 17 17 16 14 14 13 13 12
5 4 4 2 2 2 2 2 4 13 20 12 9 10 11 11 11 10 10 9 10 12 12 14 12 12 13 13 13 12 14 15 17 18 21 19 19 19 18 16 15 14 13 12 12
5 5 5 5 4 1 2 5 14 18 12 13 12 12 12 12 12 12 13 14 15 17 16 14 14 13 12 13 13 15 16 20 21 21 21 20 20 18 16 15 15 13 13 12 12
6 5 6 5 4 1 3 10 17 14 14 12 12 13 13 12 12 12 13 14 14 16 16 16 17 13 12 13 14 15 15 19 23 23 21 18 20 17 15 13 13 12 12 12 11
5 6 7 5 3 3 7 15 15 13 11 13 13 15 15 13 13 13 13 14 13 13 16 17 16 13 13 12 11 14 17 15 19 26 22 20 18 15 14 13 13 12 12 12 11
8 8 8 4 3 4 10 13 12 9 10 11 14 13 16 15 14 14 14 13 13 12 13 14 16 14 13 12 12 14 13 16 18 24 25 21 20 19 15 14 13 13 12 11 11
8 11 8 5 4 8 14 13 11 8 8 11 13 14 14 15 14 15 14 13 12 12 12 13 14 15 13 14 15 15 15 16 16 18 22 24 20 16 13 13 13 12 11 12 11
10 14 8 5 9 11 14 11 9 9 8 9 10 11 13 14 15 15 15 14 11 12 13 12 14 17 15 14 13 14 15 15 18 20 20 19 19 14 12 12 12 12 11 12 11
12 13 8 6 13 13 11 10 9 10 9 10 11 10 10 12 15 13 13 11 11 12 13 12 15 20 16 15 14 15 15 14 15 16 19 20 19 13 13 12 12 12 12 11 11
12 15 13 9 10 12 13 12 12 8 9 9 10 9 11 12 11 13 12 11 10 10 8 10 14 16 17 16 14 15 14 14 14 17 17 17 16 15 14 12 12 11 11 11 12
12 15 14 15 13 13 12 12 13 13 10 9 10 11 12 13 13 13 12 12 11 10 10 11 15 15 15 14 14 15 15 15 16 15 17 16 16 14 13 13 13 12 12 12 12
11 14 14 15 14 13 12 14 13 13 12 12 12 10 11 13 12 13 13 13 13 11 12 12 15 15 16 14 15 16 15 15 15 15 15 15 15 12 11 11 12 12 13 13 13
8 8 11 14 15 14 14 14 14 12 12 11 11 11 12 11 10 9 10 10 11 12 12 13 14 15 17 16 15 17 15 15 15 14 14 15 14 12 12 12 12 12 12 13 12